NORTHEAST SUFFOLK  -  Rip Current Statement Rip Current Statement        NORTHERN NASSAU  -  Rip Current Statement Rip Current Statement        NORTHERN QUEENS  -  Rip Current Statement Rip Current Statement        NORTHWEST SUFFOLK  -  Rip Current Statement Rip Current Statement        SOUTHEAST SUFFOLK  -  Rip Current Statement Rip Current Statement        SOUTHERN NASSAU  -  Rip Current Statement Rip Current Statement        SOUTHERN QUEENS  -  Rip Current Statement Rip Current Statement        SOUTHWEST SUFFOLK  -  Rip Current Statement Rip Current Statement      

Active alerts

Northern Queens
  Details for Northern Queens Rip Current Statement
Southern Queens
  Details for Southern Queens Rip Current Statement
Northern Nassau
  Details for Northern Nassau Rip Current Statement
Southern Nassau
  Details for Southern Nassau Rip Current Statement
Northwest Suffolk
  Details for Northwest Suffolk Rip Current Statement
Southwest Suffolk
  Details for Southwest Suffolk Rip Current Statement
Northeast Suffolk
  Details for Northeast Suffolk Rip Current Statement
Southeast Suffolk
  Details for Southeast Suffolk Rip Current Statement


WXM80 ListenWXM80 Stop

You find our weather info also at:

UK Metoffice

WeatherCloud

Weather Underground

Northeastern Weather Network

AWEKAS

Citizen Weather Observer Program (CWOP)

HAMweather, WeatherForYou, PWS Weather


Weather Underground History page Text

Daily Summary for December 7, 2016 Units:  English    Metric   Both
« Previous Day
Next Day »
Daily Weekly Monthly Yearly Custom
  High: Low: Average:
Temperature: 43.9 °F 38.2 °F 42 °F
Dew Point: 42.0 °F 35.7 °F 39.6 °F
Humidity: 96 % 79 % 91 %
Wind Speed: 13.0 mph 0.0 mph 3.5 mph
Wind Gust: 23.0 mph - -
Wind:- - SSE
Pressure: 30.01 in 29.81 in -
Precipitation: 0.05 in    
Historical Graphs
 
 
Tabular Data for December 7, 2016
Time Temperature Dew Point Pressure Wind Wind Speed Wind Gust Humidity Rainfall Rate (Hourly)
00:04 41.0 °F 39.1 °F 29.83 in East 13.0 mph 16.1 mph 93 % 0.00 in
00:10 41.0 °F 38.9 °F 29.83 in East 8.8 mph 13.0 mph 92 % 0.00 in
00:15 41.0 °F 38.9 °F 29.83 in East 10.0 mph 14.0 mph 92 % 0.00 in
00:20 41.1 °F 39.2 °F 29.83 in East 7.0 mph 12.0 mph 93 % 0.00 in
00:25 41.1 °F 39.2 °F 29.83 in East 7.6 mph 12.7 mph 93 % 0.00 in
00:30 41.2 °F 39.3 °F 29.83 in East 9.0 mph 14.0 mph 93 % 0.00 in
00:35 41.3 °F 39.4 °F 29.83 in East 9.0 mph 15.0 mph 93 % 0.00 in
00:40 41.4 °F 39.3 °F 29.83 in East 8.3 mph 11.0 mph 92 % 0.00 in
00:45 41.5 °F 39.3 °F 29.83 in East 8.0 mph 15.0 mph 92 % 0.00 in
00:50 41.6 °F 39.4 °F 29.83 in East 9.0 mph 14.0 mph 92 % 0.00 in
00:55 41.6 °F 39.4 °F 29.83 in East 8.0 mph 14.0 mph 92 % 0.00 in
01:00 41.7 °F 39.5 °F 29.83 in East 9.9 mph 11.5 mph 92 % 0.00 in
01:05 41.7 °F 39.6 °F 29.83 in East 8.0 mph 14.0 mph 92 % 0.00 in
01:10 41.8 °F 39.6 °F 29.83 in East 10.3 mph 12.7 mph 92 % 0.00 in
01:15 41.8 °F 39.6 °F 29.82 in East 12.0 mph 15.0 mph 92 % 0.00 in
01:20 41.9 °F 39.7 °F 29.82 in East 9.0 mph 14.0 mph 92 % 0.00 in
01:25 41.9 °F 40.0 °F 29.82 in ESE 10.2 mph 12.7 mph 93 % 0.00 in
01:30 42.0 °F 40.1 °F 29.82 in East 9.0 mph 14.0 mph 93 % 0.00 in
01:35 42.0 °F 40.1 °F 29.81 in East 8.0 mph 14.0 mph 93 % 0.00 in
01:40 42.1 °F 40.2 °F 29.82 in East 9.0 mph 14.0 mph 93 % 0.00 in
01:45 42.2 °F 40.3 °F 29.81 in East 9.0 mph 14.0 mph 93 % 0.00 in
01:50 42.2 °F 40.3 °F 29.81 in East 8.0 mph 12.0 mph 93 % 0.00 in
01:55 42.3 °F 40.4 °F 29.81 in East 10.0 mph 16.0 mph 93 % 0.00 in
02:00 42.4 °F 40.5 °F 29.81 in ENE 11.6 mph 14.0 mph 93 % 0.00 in
02:05 42.4 °F 40.5 °F 29.81 in East 8.0 mph 11.5 mph 93 % 0.00 in
02:10 42.5 °F 40.6 °F 29.82 in East 9.2 mph 12.7 mph 93 % 0.00 in
02:15 42.5 °F 40.6 °F 29.82 in ENE 7.7 mph 11.5 mph 93 % 0.00 in
02:20 42.6 °F 40.7 °F 29.82 in East 9.5 mph 12.7 mph 93 % 0.00 in
02:25 42.7 °F 41.1 °F 29.82 in ENE 9.3 mph 15.0 mph 94 % 0.00 in
02:30 42.7 °F 40.8 °F 29.82 in East 8.8 mph 11.0 mph 93 % 0.00 in
02:35 42.6 °F 40.7 °F 29.82 in ENE 7.0 mph 9.2 mph 93 % 0.00 in
02:41 42.6 °F 41.0 °F 29.82 in ENE 11.2 mph 16.0 mph 94 % 0.01 in
02:46 42.4 °F 40.8 °F 29.83 in ENE 9.6 mph 13.8 mph 94 % 0.01 in
02:51 42.2 °F 40.6 °F 29.83 in East 9.3 mph 15.0 mph 94 % 0.01 in
02:56 42.2 °F 40.9 °F 29.83 in NE 10.4 mph 12.7 mph 95 % 0.01 in
03:01 42.0 °F 40.7 °F 29.83 in East 11.1 mph 14.0 mph 95 % 0.02 in
03:07 41.8 °F 40.5 °F 29.82 in ENE 10.6 mph 23.0 mph 95 % 0.02 in
03:12 41.7 °F 40.4 °F 29.82 in East 8.6 mph 15.0 mph 95 % 0.02 in
03:17 41.6 °F 40.3 °F 29.82 in East 11.0 mph 16.1 mph 95 % 0.02 in
03:25 41.5 °F 40.2 °F 29.82 in ENE 11.0 mph 17.3 mph 95 % 0.02 in
03:30 41.4 °F 40.1 °F 29.83 in East 11.0 mph 16.1 mph 95 % 0.02 in
03:35 41.4 °F 40.1 °F 29.85 in ENE 7.4 mph 13.8 mph 95 % 0.02 in
03:40 41.5 °F 40.2 °F 29.86 in ENE 7.9 mph 12.7 mph 95 % 0.01 in
03:46 41.5 °F 40.2 °F 29.88 in ENE 5.8 mph 13.8 mph 95 % 0.01 in
03:52 41.5 °F 40.2 °F 29.88 in ENE 7.1 mph 11.5 mph 95 % 0.01 in
03:57 41.5 °F 40.2 °F 29.88 in North 3.8 mph 8.1 mph 95 % 0.01 in
04:02 41.4 °F 40.1 °F 29.87 in NNE 5.8 mph 9.2 mph 95 % 0.01 in
04:07 41.2 °F 39.9 °F 29.87 in NNE 4.0 mph 9.2 mph 95 % 0.01 in
04:12 41.0 °F 39.7 °F 29.87 in NE 5.9 mph 11.5 mph 95 % 0.02 in
04:17 40.9 °F 39.6 °F 29.87 in NNE 3.4 mph 5.8 mph 95 % 0.02 in
04:22 40.7 °F 39.4 °F 29.87 in NNE 4.7 mph 10.4 mph 95 % 0.02 in
04:27 40.6 °F 39.3 °F 29.88 in NNE 5.4 mph 6.9 mph 95 % 0.02 in
04:32 40.5 °F 39.2 °F 29.89 in NE 5.1 mph 8.0 mph 95 % 0.02 in
04:38 40.5 °F 39.2 °F 29.88 in NE 5.2 mph 6.9 mph 95 % 0.02 in
04:43 40.5 °F 39.2 °F 29.88 in ENE 4.7 mph 9.2 mph 95 % 0.02 in
04:48 40.5 °F 39.2 °F 29.87 in ENE 2.8 mph 3.5 mph 95 % 0.02 in
04:53 40.4 °F 39.1 °F 29.87 in NE 3.1 mph 4.6 mph 95 % 0.03 in
04:58 40.5 °F 39.2 °F 29.87 in ENE 4.4 mph 9.2 mph 95 % 0.02 in
05:03 40.5 °F 39.2 °F 29.87 in ENE 3.5 mph 7.0 mph 95 % 0.02 in
05:08 40.5 °F 39.4 °F 29.88 in NNE 3.4 mph 4.0 mph 96 % 0.02 in
05:13 40.5 °F 39.4 °F 29.87 in East 7.2 mph 9.0 mph 96 % 0.01 in
05:18 40.5 °F 39.4 °F 29.88 in ENE 5.4 mph 9.2 mph 96 % 0.01 in
05:24 40.5 °F 39.4 °F 29.88 in East 3.8 mph 8.1 mph 96 % 0.01 in
05:29 40.6 °F 39.5 °F 29.89 in ENE 3.9 mph 9.2 mph 96 % 0.01 in
05:34 40.6 °F 39.5 °F 29.90 in East 2.4 mph 9.2 mph 96 % 0.01 in
05:39 40.6 °F 39.5 °F 29.90 in NNE 4.0 mph 5.8 mph 96 % 0.01 in
05:44 40.6 °F 39.5 °F 29.90 in ENE 6.1 mph 11.5 mph 96 % 0.01 in
05:49 40.6 °F 39.5 °F 29.90 in ENE 3.2 mph 7.0 mph 96 % 0.01 in
05:54 40.6 °F 39.5 °F 29.89 in NE 3.0 mph 4.6 mph 96 % 0.00 in
05:59 40.6 °F 39.5 °F 29.90 in ENE 5.9 mph 11.5 mph 96 % 0.00 in
06:04 40.6 °F 39.5 °F 29.90 in ENE 6.7 mph 9.2 mph 96 % 0.00 in
06:09 40.6 °F 39.5 °F 29.90 in ENE 7.9 mph 9.2 mph 96 % 0.00 in
06:15 40.5 °F 39.4 °F 29.90 in ENE 5.6 mph 10.4 mph 96 % 0.00 in
06:20 40.5 °F 39.4 °F 29.90 in ENE 8.0 mph 12.0 mph 96 % 0.00 in
06:25 40.5 °F 39.4 °F 29.90 in ENE 6.0 mph 12.0 mph 96 % 0.00 in
06:30 40.5 °F 39.4 °F 29.91 in ENE 5.6 mph 11.5 mph 96 % 0.00 in
06:35 40.5 °F 39.4 °F 29.91 in ENE 6.0 mph 11.0 mph 96 % 0.00 in
06:40 40.5 °F 39.4 °F 29.91 in ENE 7.0 mph 12.0 mph 96 % 0.00 in
06:45 40.5 °F 39.4 °F 29.91 in ENE 5.0 mph 9.0 mph 96 % 0.00 in
06:50 40.5 °F 39.5 °F 29.91 in ENE 6.0 mph 9.0 mph 96 % 0.00 in
06:55 40.5 °F 39.4 °F 29.92 in ENE 3.0 mph 12.0 mph 96 % 0.00 in
07:00 40.5 °F 39.4 °F 29.91 in ENE 6.8 mph 9.2 mph 96 % 0.00 in
07:05 40.6 °F 39.5 °F 29.91 in ENE 6.0 mph 12.0 mph 96 % 0.00 in
07:10 40.6 °F 39.5 °F 29.91 in ENE 3.0 mph 12.0 mph 96 % 0.00 in
07:15 40.6 °F 39.6 °F 29.92 in ENE 6.0 mph 10.0 mph 96 % 0.00 in
07:20 40.7 °F 39.6 °F 29.92 in ENE 6.0 mph 10.0 mph 96 % 0.00 in
07:25 40.7 °F 39.6 °F 29.92 in ENE 8.0 mph 12.0 mph 96 % 0.00 in
07:30 40.8 °F 39.7 °F 29.91 in ENE 8.0 mph 13.0 mph 96 % 0.00 in
07:35 40.9 °F 39.8 °F 29.91 in ENE 7.0 mph 14.0 mph 96 % 0.00 in
07:40 40.9 °F 39.8 °F 29.91 in ENE 7.0 mph 10.0 mph 96 % 0.00 in
07:45 41.0 °F 39.9 °F 29.91 in ENE 8.0 mph 12.0 mph 96 % 0.00 in
07:50 41.0 °F 39.9 °F 29.91 in ENE 7.0 mph 12.0 mph 96 % 0.00 in
07:55 41.1 °F 40.0 °F 29.91 in ENE 9.0 mph 13.0 mph 96 % 0.00 in
08:00 41.0 °F 39.7 °F 29.92 in ENE 7.6 mph 12.7 mph 95 % 0.00 in
08:05 41.0 °F 39.7 °F 29.92 in ENE 6.0 mph 13.0 mph 95 % 0.00 in
08:10 41.0 °F 39.7 °F 29.93 in ENE 8.0 mph 13.0 mph 95 % 0.00 in
08:15 41.0 °F 39.7 °F 29.93 in ENE 6.0 mph 13.0 mph 95 % 0.00 in
08:20 41.1 °F 39.8 °F 29.92 in ENE 7.0 mph 12.0 mph 95 % 0.00 in
08:25 41.1 °F 39.8 °F 29.93 in ENE 8.0 mph 12.0 mph 95 % 0.00 in
08:30 41.1 °F 39.8 °F 29.93 in ENE 3.0 mph 10.0 mph 95 % 0.00 in
08:35 41.1 °F 39.8 °F 29.94 in ENE 8.0 mph 12.0 mph 95 % 0.00 in
08:40 41.1 °F 39.8 °F 29.95 in ENE 6.0 mph 11.0 mph 95 % 0.00 in
08:45 41.2 °F 39.9 °F 29.95 in NE 2.0 mph 7.0 mph 95 % 0.00 in
08:50 41.2 °F 39.9 °F 29.96 in NE 2.0 mph 6.0 mph 95 % 0.00 in
08:55 41.2 °F 39.9 °F 29.96 in NE 3.0 mph 7.0 mph 95 % 0.00 in
09:00 41.3 °F 40.0 °F 29.96 in NE 4.5 mph 4.6 mph 95 % 0.00 in
09:05 41.3 °F 40.0 °F 29.96 in NE 2.0 mph 7.0 mph 95 % 0.00 in
09:10 41.4 °F 40.1 °F 29.96 in ENE 5.0 mph 9.0 mph 95 % 0.00 in
09:15 41.4 °F 40.1 °F 29.97 in ENE 2.0 mph 7.0 mph 95 % 0.00 in
09:20 41.5 °F 40.2 °F 29.97 in ENE 5.0 mph 7.0 mph 95 % 0.00 in
09:25 41.6 °F 40.3 °F 29.97 in ENE 2.0 mph 7.0 mph 95 % 0.00 in
09:30 41.7 °F 40.4 °F 29.97 in ENE 3.0 mph 7.0 mph 95 % 0.00 in
09:35 41.8 °F 40.5 °F 29.97 in ENE 3.6 mph 8.1 mph 95 % 0.00 in
09:40 41.9 °F 40.6 °F 29.97 in ENE 3.0 mph 8.0 mph 95 % 0.00 in
09:45 42.0 °F 40.7 °F 29.97 in ENE 6.0 mph 9.0 mph 95 % 0.00 in
09:50 42.1 °F 40.8 °F 29.97 in ENE 2.5 mph 4.6 mph 95 % 0.00 in
09:55 42.2 °F 40.9 °F 29.98 in ENE 3.0 mph 9.0 mph 95 % 0.00 in
10:00 42.2 °F 40.6 °F 29.97 in ENE 1.3 mph 6.9 mph 94 % 0.00 in
10:05 42.3 °F 40.7 °F 29.97 in ENE 2.6 mph 5.0 mph 94 % 0.00 in
10:10 42.3 °F 40.7 °F 29.97 in NE 2.7 mph 5.0 mph 94 % 0.00 in
10:15 42.3 °F 40.7 °F 29.97 in NE 3.1 mph 5.8 mph 94 % 0.00 in
10:20 42.3 °F 40.7 °F 29.97 in ENE 0.5 mph 2.3 mph 94 % 0.00 in
10:25 42.4 °F 40.8 °F 29.97 in ENE 0.6 mph 2.0 mph 94 % 0.00 in
10:30 42.5 °F 40.9 °F 29.97 in North 2.6 mph 4.6 mph 94 % 0.00 in
10:35 42.5 °F 40.9 °F 29.97 in NNE 2.9 mph 5.0 mph 94 % 0.00 in
10:40 42.6 °F 41.3 °F 29.97 in NNE 2.6 mph 3.5 mph 95 % 0.00 in
10:46 42.7 °F 41.4 °F 29.96 in NNE 4.0 mph 4.6 mph 95 % 0.00 in
10:51 42.8 °F 41.5 °F 29.95 in North 3.4 mph 5.8 mph 95 % 0.00 in
10:56 42.8 °F 41.2 °F 29.95 in North 2.7 mph 4.6 mph 94 % 0.00 in
11:01 42.9 °F 41.3 °F 29.96 in NNE 3.8 mph 4.6 mph 94 % 0.00 in
11:06 43.0 °F 41.4 °F 29.96 in NNE 3.1 mph 6.0 mph 94 % 0.00 in
11:11 43.0 °F 41.4 °F 29.95 in NNE 1.7 mph 4.6 mph 94 % 0.00 in
11:16 43.0 °F 41.7 °F 29.95 in North 0.9 mph 3.5 mph 95 % 0.00 in
11:21 43.1 °F 41.5 °F 29.95 in North 0.9 mph 3.0 mph 94 % 0.00 in
11:26 43.2 °F 41.9 °F 29.94 in NNE 1.3 mph 3.5 mph 95 % 0.00 in
11:31 43.3 °F 42.0 °F 29.94 in ENE 3.7 mph 4.0 mph 95 % 0.00 in
11:37 43.3 °F 41.7 °F 29.93 in NE 2.2 mph 4.6 mph 94 % 0.00 in
11:42 43.3 °F 41.7 °F 29.93 in ENE 2.4 mph 5.8 mph 94 % 0.00 in
11:47 43.3 °F 41.7 °F 29.93 in ENE 2.6 mph 4.6 mph 94 % 0.00 in
11:52 43.3 °F 41.7 °F 29.93 in NE 2.4 mph 5.8 mph 94 % 0.00 in
11:57 43.4 °F 41.8 °F 29.93 in North 1.1 mph 3.5 mph 94 % 0.00 in
12:02 43.5 °F 41.9 °F 29.94 in ENE 1.3 mph 3.5 mph 94 % 0.00 in
12:07 43.5 °F 41.9 °F 29.93 in NNE 2.1 mph 3.5 mph 94 % 0.00 in
12:12 43.5 °F 41.6 °F 29.93 in North 3.0 mph 4.6 mph 93 % 0.00 in
12:17 43.5 °F 41.6 °F 29.93 in North 1.6 mph 3.5 mph 93 % 0.00 in
12:22 43.5 °F 41.6 °F 29.94 in North 0.6 mph 3.0 mph 93 % 0.00 in
12:28 43.5 °F 41.6 °F 29.94 in North 1.1 mph 3.5 mph 93 % 0.00 in
12:33 43.4 °F 41.5 °F 29.93 in North 0.5 mph 1.2 mph 93 % 0.00 in
12:38 43.4 °F 41.5 °F 29.93 in NNW 1.1 mph 3.5 mph 93 % 0.00 in
12:43 43.4 °F 41.5 °F 29.93 in NNW 2.6 mph 3.5 mph 93 % 0.00 in
12:48 43.4 °F 41.5 °F 29.93 in NNW 0.4 mph 2.0 mph 93 % 0.00 in
12:53 43.5 °F 41.6 °F 29.93 in NNW 1.5 mph 3.5 mph 93 % 0.00 in
12:58 43.6 °F 41.7 °F 29.92 in NNW 1.4 mph 3.5 mph 93 % 0.00 in
13:03 43.5 °F 41.3 °F 29.92 in NNW 0.1 mph 2.3 mph 92 % 0.00 in
13:08 43.6 °F 41.4 °F 29.93 in North 0.3 mph 2.3 mph 92 % 0.00 in
13:14 43.6 °F 41.4 °F 29.93 in NNW 0.7 mph 2.0 mph 92 % 0.00 in
13:20 43.6 °F 41.4 °F 29.93 in Calm   1.2 mph 92 % 0.00 in
13:27 43.5 °F 41.3 °F 29.93 in NNW 1.3 mph 3.5 mph 92 % 0.00 in
13:32 43.4 °F 41.2 °F 29.94 in Calm   1.2 mph 92 % 0.00 in
13:37 43.4 °F 41.2 °F 29.94 in NW 2.7 mph 4.6 mph 92 % 0.00 in
13:42 43.4 °F 41.2 °F 29.93 in NW 1.4 mph 2.3 mph 92 % 0.00 in
13:47 43.4 °F 41.2 °F 29.93 in NW 0.6 mph 1.0 mph 92 % 0.00 in
13:53 43.5 °F 41.3 °F 29.93 in NW 0.5 mph 2.3 mph 92 % 0.00 in
14:03 43.5 °F 41.3 °F 29.94 in NW 0.3 mph 2.3 mph 92 % 0.00 in
14:08 43.5 °F 41.0 °F 29.94 in WNW 1.7 mph 4.6 mph 91 % 0.00 in
14:13 43.4 °F 40.9 °F 29.95 in NW 0.6 mph 2.3 mph 91 % 0.00 in
14:18 43.4 °F 40.9 °F 29.95 in NW 2.1 mph 3.5 mph 91 % 0.00 in
14:23 43.4 °F 40.9 °F 29.95 in NW 2.4 mph 3.5 mph 91 % 0.00 in
14:28 43.4 °F 40.9 °F 29.95 in NW 0.9 mph 3.5 mph 91 % 0.00 in
14:33 43.3 °F 41.1 °F 29.95 in NW 1.3 mph 2.0 mph 92 % 0.00 in
14:38 43.4 °F 41.2 °F 29.95 in NW 1.7 mph 3.0 mph 92 % 0.00 in
14:44 43.4 °F 41.2 °F 29.95 in WSW 1.5 mph 3.5 mph 92 % 0.00 in
14:49 43.4 °F 41.2 °F 29.95 in WSW 0.7 mph 2.3 mph 92 % 0.00 in
14:56 43.5 °F 41.3 °F 29.95 in WSW 1.2 mph 3.5 mph 92 % 0.00 in
15:01 43.5 °F 41.3 °F 29.96 in WSW 4.3 mph 6.9 mph 92 % 0.00 in
15:08 43.6 °F 41.4 °F 29.96 in SW 1.4 mph 5.0 mph 92 % 0.00 in
15:13 43.5 °F 41.0 °F 29.97 in West 2.3 mph 3.5 mph 91 % 0.00 in
15:19 43.5 °F 41.0 °F 29.96 in NNW 1.5 mph 3.5 mph 91 % 0.00 in
15:24 43.5 °F 41.0 °F 29.96 in West 3.0 mph 3.5 mph 91 % 0.00 in
15:29 43.5 °F 41.0 °F 29.97 in West 0.9 mph 2.3 mph 91 % 0.00 in
15:35 43.5 °F 41.0 °F 29.97 in Calm     91 % 0.00 in
15:40 43.5 °F 41.0 °F 29.96 in WNW 0.8 mph 2.3 mph 91 % 0.00 in
15:46 43.6 °F 41.4 °F 29.96 in West 0.2 mph 2.3 mph 92 % 0.00 in
15:51 43.6 °F 41.4 °F 29.96 in West 0.7 mph 2.3 mph 92 % 0.00 in
15:57 43.6 °F 41.4 °F 29.96 in West 1.9 mph 3.5 mph 92 % 0.00 in
16:02 43.6 °F 41.4 °F 29.96 in Calm     92 % 0.00 in
16:07 43.6 °F 41.4 °F 29.96 in WSW 1.6 mph 3.5 mph 92 % 0.00 in
16:14 43.6 °F 41.1 °F 29.97 in WSW 2.4 mph 3.5 mph 91 % 0.00 in
16:19 43.6 °F 41.1 °F 29.97 in WSW 2.3 mph 3.5 mph 91 % 0.00 in
16:24 43.6 °F 41.1 °F 29.97 in West 3.5 mph 4.0 mph 91 % 0.00 in
16:29 43.6 °F 41.1 °F 29.98 in WSW 2.1 mph 6.0 mph 91 % 0.00 in
16:34 43.6 °F 41.1 °F 29.99 in WSW 0.4 mph 1.2 mph 91 % 0.00 in
16:39 43.6 °F 41.1 °F 29.99 in WSW 2.1 mph 3.5 mph 91 % 0.00 in
16:44 43.6 °F 41.1 °F 29.99 in WSW 0.5 mph 2.0 mph 91 % 0.00 in
16:49 43.6 °F 41.1 °F 29.99 in West 0.3 mph 3.5 mph 91 % 0.00 in
16:54 43.6 °F 40.9 °F 30.00 in WNW 3.7 mph 5.8 mph 90 % 0.00 in
16:59 43.6 °F 40.6 °F 30.00 in WNW 0.5 mph 3.5 mph 89 % 0.00 in
17:04 43.6 °F 40.3 °F 30.00 in NW 3.0 mph 5.0 mph 88 % 0.00 in
17:10 43.6 °F 40.3 °F 30.00 in NW 2.6 mph 8.1 mph 88 % 0.00 in
17:15 43.7 °F 40.4 °F 30.00 in Calm   5.0 mph 88 % 0.00 in
17:20 43.8 °F 40.5 °F 30.00 in WSW 2.0 mph 6.0 mph 88 % 0.00 in
17:25 43.8 °F 40.8 °F 30.00 in WSW 1.2 mph 3.5 mph 89 % 0.00 in
17:30 43.8 °F 40.8 °F 30.00 in West 1.0 mph 6.0 mph 89 % 0.00 in
17:35 43.7 °F 40.1 °F 30.01 in WNW 2.0 mph 8.0 mph 87 % 0.00 in
17:40 43.7 °F 39.5 °F 30.01 in WNW 2.6 mph 6.9 mph 85 % 0.00 in
17:45 43.7 °F 39.5 °F 30.01 in WNW 3.0 mph 6.0 mph 85 % 0.00 in
17:50 43.8 °F 39.3 °F 30.01 in WNW 2.0 mph 9.0 mph 84 % 0.00 in
17:55 43.8 °F 39.3 °F 30.01 in NW 0.2 mph 3.5 mph 84 % 0.00 in
18:00 43.8 °F 39.0 °F 30.01 in NW 2.0 mph 4.6 mph 83 % 0.00 in
18:05 43.9 °F 39.1 °F 30.01 in NW 1.4 mph 3.5 mph 83 % 0.00 in
18:10 43.9 °F 39.1 °F 30.01 in NW 1.8 mph 3.5 mph 83 % 0.00 in
18:15 43.9 °F 39.1 °F 30.00 in WNW 1.6 mph 3.5 mph 83 % 0.00 in
18:20 43.9 °F 39.1 °F 30.00 in WNW 0.9 mph 3.5 mph 83 % 0.00 in
18:25 43.9 °F 39.1 °F 30.00 in Calm   2.3 mph 83 % 0.00 in
18:30 43.8 °F 39.0 °F 30.00 in WNW 2.2 mph 3.5 mph 83 % 0.00 in
18:35 43.7 °F 38.9 °F 30.01 in WNW 0.7 mph 2.0 mph 83 % 0.00 in
18:40 43.7 °F 38.9 °F 30.01 in WNW 0.3 mph 2.3 mph 83 % 0.00 in
18:46 43.7 °F 38.9 °F 30.01 in West 1.4 mph 2.3 mph 83 % 0.00 in
18:51 43.6 °F 38.8 °F 30.01 in West 0.3 mph 1.2 mph 83 % 0.00 in
18:56 43.5 °F 38.7 °F 30.01 in West 0.7 mph 2.3 mph 83 % 0.00 in
19:01 43.4 °F 38.6 °F 30.01 in West 0.6 mph 2.3 mph 83 % 0.00 in
19:06 43.3 °F 38.5 °F 30.01 in West 0.3 mph 1.2 mph 83 % 0.00 in
19:11 43.2 °F 38.4 °F 30.01 in WNW 1.4 mph 3.5 mph 83 % 0.00 in
19:16 43.1 °F 38.3 °F 30.01 in West 0.4 mph 2.3 mph 83 % 0.00 in
19:21 43.1 °F 38.3 °F 30.00 in West 2.0 mph 3.5 mph 83 % 0.00 in
19:26 43.0 °F 37.6 °F 30.01 in WNW 1.4 mph 3.5 mph 81 % 0.00 in
19:31 42.9 °F 37.5 °F 30.01 in WNW 3.4 mph 4.0 mph 81 % 0.00 in
19:37 43.0 °F 36.9 °F 30.00 in West 3.5 mph 4.6 mph 79 % 0.00 in
19:42 43.0 °F 37.3 °F 30.00 in NW 0.4 mph 2.3 mph 80 % 0.00 in
19:47 43.1 °F 37.3 °F 30.00 in WNW 3.0 mph 5.8 mph 80 % 0.00 in
19:52 43.1 °F 37.3 °F 30.00 in NW 1.0 mph 6.9 mph 80 % 0.00 in
19:57 43.1 °F 37.3 °F 30.00 in NW 1.5 mph 3.5 mph 80 % 0.00 in
20:02 43.2 °F 37.4 °F 30.00 in NW 1.8 mph 3.5 mph 80 % 0.00 in
20:07 43.2 °F 37.1 °F 30.00 in NW 2.8 mph 5.8 mph 79 % 0.00 in
20:12 43.2 °F 37.1 °F 30.00 in WNW 1.5 mph 5.8 mph 79 % 0.00 in
20:17 43.2 °F 37.1 °F 30.00 in WNW 0.6 mph 1.0 mph 79 % 0.00 in
20:22 43.2 °F 37.4 °F 30.00 in Calm   2.3 mph 80 % 0.00 in
20:28 43.2 °F 37.4 °F 30.00 in Calm   1.2 mph 80 % 0.00 in
20:33 43.2 °F 37.4 °F 29.99 in Calm   1.2 mph 80 % 0.00 in
20:38 43.2 °F 37.4 °F 29.99 in WNW 1.9 mph 3.5 mph 80 % 0.00 in
20:43 43.1 °F 37.3 °F 30.00 in WNW 1.1 mph 2.3 mph 80 % 0.00 in
20:48 43.0 °F 37.3 °F 30.00 in Calm   2.3 mph 80 % 0.00 in
20:53 42.9 °F 37.2 °F 30.00 in Calm     80 % 0.00 in
20:58 42.8 °F 37.4 °F 30.00 in WNW 0.2 mph 1.2 mph 81 % 0.00 in
21:03 42.7 °F 37.3 °F 30.00 in WNW 0.4 mph 2.3 mph 81 % 0.00 in
21:08 42.6 °F 37.2 °F 30.00 in WNW 0.1 mph 1.2 mph 81 % 0.00 in
21:13 42.4 °F 37.3 °F 30.00 in Calm   1.2 mph 82 % 0.00 in
21:19 42.3 °F 37.2 °F 29.99 in Calm     82 % 0.00 in
21:24 42.1 °F 37.3 °F 29.99 in Calm     83 % 0.00 in
21:29 41.9 °F 37.1 °F 29.99 in Calm     83 % 0.00 in
21:34 41.7 °F 36.9 °F 29.99 in WNW 0.7 mph 2.3 mph 83 % 0.00 in
21:39 41.5 °F 37.0 °F 29.99 in WNW 0.2 mph 1.2 mph 84 % 0.00 in
21:44 41.1 °F 36.6 °F 29.98 in Calm     84 % 0.00 in
21:49 40.9 °F 36.4 °F 29.98 in Calm     84 % 0.00 in
21:54 40.6 °F 36.4 °F 29.99 in Calm     85 % 0.00 in
21:59 40.4 °F 36.2 °F 29.99 in WNW 0.7 mph 1.2 mph 85 % 0.00 in
22:04 40.0 °F 36.2 °F 29.99 in Calm     86 % 0.00 in
22:10 39.8 °F 36.0 °F 29.99 in Calm   1.0 mph 86 % 0.00 in
22:15 39.6 °F 36.0 °F 29.99 in Calm   1.0 mph 87 % 0.00 in
22:20 39.3 °F 35.8 °F 29.99 in Calm   2.0 mph 87 % 0.00 in
22:25 39.2 °F 35.9 °F 30.00 in WNW 1.0 mph 2.0 mph 88 % 0.00 in
22:30 39.0 °F 35.7 °F 30.00 in WNW 1.0 mph 2.0 mph 88 % 0.00 in
22:35 38.8 °F 35.8 °F 30.00 in Calm   2.0 mph 89 % 0.00 in
22:40 38.7 °F 35.8 °F 30.00 in WNW 1.0 mph 2.0 mph 89 % 0.00 in
22:45 38.7 °F 35.7 °F 30.00 in WNW 0.1 mph 1.2 mph 89 % 0.00 in
22:50 38.6 °F 35.9 °F 30.00 in Calm   1.0 mph 90 % 0.00 in
22:55 38.5 °F 35.8 °F 30.00 in WNW 1.0 mph 2.0 mph 90 % 0.00 in
23:00 38.5 °F 35.8 °F 30.00 in WNW 1.3 mph 2.0 mph 90 % 0.00 in
23:05 38.5 °F 35.8 °F 29.99 in WNW 1.3 mph 3.5 mph 90 % 0.00 in
23:10 38.4 °F 35.7 °F 29.99 in WNW 0.1 mph 1.2 mph 90 % 0.00 in
23:15 38.4 °F 36.0 °F 29.99 in Calm     91 % 0.00 in
23:20 38.4 °F 36.0 °F 29.99 in Calm     91 % 0.00 in
23:25 38.4 °F 36.0 °F 29.99 in Calm     91 % 0.00 in
23:30 38.3 °F 35.9 °F 29.99 in WNW 0.9 mph 2.3 mph 91 % 0.00 in
23:35 38.3 °F 35.9 °F 29.99 in Calm   1.2 mph 91 % 0.00 in
23:40 38.3 °F 35.9 °F 29.98 in WNW 0.3 mph 1.0 mph 91 % 0.00 in
23:45 38.3 °F 35.9 °F 29.98 in Calm     91 % 0.00 in
23:51 38.2 °F 35.8 °F 29.98 in Calm     91 % 0.00 in
23:56 38.2 °F 35.8 °F 29.98 in Calm     91 % 0.00 in
Crab Meadow Weather
Compliments of Weather Underground - 3 mb

Script developed by  Jim McMurry - jmcmurry@mwt.net Adapted for the template by  Wim van der Kuil - Leuven-Template.eu

Lightning: The average number of deaths from lightning is more than 100 a year with several more deaths from lightning related fires. Lightning injuries account for 3-5 times than those of lightning deaths.